954  
ASUS43 KFSD 290110  
RWRFSD  
 
WEATHER ROUNDUP FOR SE SOUTH DAKOTA/SW MINNESOTA/NW IOWA  
NATIONAL WEATHER SERVICE SIOUX FALLS SD  
700 PM CST MON NOV 28 2022  
 
NOTE: "FAIR" INDICATES FEW OR NO CLOUDS BELOW 12,000 FEET WITH NO  
SIGNIFICANT WEATHER AND OR S TO VISIBILITY
.  
 
 
SDZ038>040-050-052>070-290200-  
SOUTHEAST SOUTH DAKOTA  
 
CITY SKY/WX TMP DP RH WIND PRES REMARKS
 
BROOKINGS MOCLDY 31 25 78 NW7 29.70R WCI 24  
CHAMBERLAIN CLOUDY 32 20 59 CALM 29.73S  
HURON MOCLDY 32 20 61 NW3 29.73R  
MADISON MOCLDY 32 27 80 NW9 29.70R WCI 24  
MITCHELL CLOUDY 34 20 56 NW7 29.74R WCI 28  
SIOUX FALLS MOCLDY 36 24 62 NW6 29.70R  
WINNER CLOUDY 38 17 42 NW6G17 29.73R  
YANKTON MOCLDY 37 23 56 N10 29.70R  

 
 
MNZ071-072-080-081-089-090-097-098-290200-  
SOUTHWEST MINNESOTA  
 
CITY SKY/WX TMP DP RH WIND PRES REMARKS
 
FAIRMONT MOCLDY 37 27 67 SW6 29.68  
JACKSON MOCLDY 34 27 75 W5 29.68R WCI 30  
LUVERNE MOCLDY 32 23 69 NW5 29.70R WCI 27  
MARSHALL PTCLDY 30 26 85 W7 29.71R WCI 23  
MONTEVIDEO MOCLDY 32 25 74 NW7 29.70R WCI 26  
REDWOOD FALLS PTCLDY 33 26 75 NW7 29.68R WCI 27  
TRACY PTCLDY 28 28 100 W6 29.70R WCI 22  
WINDOM MOCLDY 34 25 69 NW6 29.67R WCI 29  
WORTHINGTON MOCLDY 35 25 66 NW9 29.68R WCI 28  

 
 
IAZ001>003-012>014-020>022-031-032-NEZ013-014-SDZ071-290200-  
NORTHWEST IOWA  
 
CITY SKY/WX TMP DP RH WIND PRES REMARKS
 
CHEROKEE MOCLDY 38 26 62 N3 29.68R  
DENISON MOCLDY 41 28 60 S8 29.68S  
ESTHERVILLE MOCLDY 38 26 62 W6 29.67R  
LE MARS MOCLDY 36 25 64 NE5 29.67S  
MAURICE FAIR 36 25 64 N7 29.66S  
SHELDON MOCLDY 34 27 75 NW6 29.66R WCI 29  
SIOUX CITY MOCLDY 44 27 51 N14 29.67R  
SPENCER MOCLDY 35 24 64 CALM 29.68R  
STORM LAKE MOCLDY 41 25 52 CALM 29.68R  

 
 
ABBREVIATIONS USED IN REMARKS  
TC - TEMPERATURE IN CELSIUS  
WCI - WIND CHILL INDEX  
HX - HEAT INDEX  
VSB - VISIBILITY  
 
 
 
CLICK HERE TO GO TO PREVIOUS BULLETINS.

The Nexlab SD Page
The Nexlab IA Page
The Nexlab MN Page
The Nexlab NE Page Main Text Page